Date String (YYYY-MM-DD hh:mm:ss) UTC,Instrument flags,Ambient pressure (hPa),Sample flow (lpm),Bypass flow (lpm),Sample temperature (°C),Ambient temperature (°C),ASC tube jacket temperature (°C),LED temperature (°C),Box temperature (°C),Sample RH (%),Span deviation,Mass concentration (μg/m³),Mass concentration (μg/m³),Mass concentration (μg/m³)
DateTimeUTC,F1_M11,P_M11,Q1_M11,Q2_M11,T1_M11,T2_M11,T3_M11,T4_M11,T5_M11,U1_M11,ZSPAN_M11,X0_M11,X2_M11,X1_M11
2023-01-22 04:00:00,,0822.6,5.00,0.00,22.0,21.2,00.0,30.6,23.8,08.9,0000.0,0004.84,0003.15,0002.70
2023-01-22 04:01:00,,0822.6,4.99,0.00,22.0,21.0,00.0,30.6,23.8,08.7,0000.0,0004.72,0003.13,0002.71
2023-01-22 04:02:00,,0822.6,5.01,0.00,22.0,20.9,00.0,30.7,23.8,08.7,0000.0,0004.47,0003.05,0002.66
2023-01-22 04:03:00,,0822.6,4.99,0.00,22.0,20.8,00.0,30.7,23.8,08.7,0000.0,0004.43,0002.97,0002.58
2023-01-22 04:04:00,,0822.6,4.99,0.00,22.0,20.7,00.0,30.7,23.7,08.7,0000.0,0004.34,0002.94,0002.56
2023-01-22 04:05:00,,0822.6,4.99,0.00,22.0,20.7,00.0,30.7,23.8,08.7,0000.0,0004.25,0002.90,0002.53
2023-01-22 04:06:00,,0822.6,5.00,0.00,22.0,20.6,00.0,30.7,23.7,09.0,0000.0,0004.05,0002.77,0002.42
2023-01-22 04:07:00,,0822.6,4.99,0.00,22.0,20.6,00.0,30.7,23.7,09.1,0000.0,0003.57,0002.66,0002.35
2023-01-22 04:08:00,,0822.6,5.00,0.00,22.0,20.6,00.0,30.7,23.7,09.0,0000.0,0003.53,0002.62,0002.32
2023-01-22 04:09:00,,0822.6,5.01,0.00,22.0,20.6,00.0,30.7,23.7,09.0,0000.0,0003.38,0002.57,0002.31
2023-01-22 04:10:00,,0822.4,4.99,0.00,22.0,20.6,00.0,30.7,23.7,09.1,0000.0,0003.55,0002.55,0002.30
2023-01-22 04:11:00,,0822.4,5.01,0.00,22.0,20.6,00.0,30.7,23.7,09.0,0000.0,0003.81,0002.59,0002.32
2023-01-22 04:12:00,,0822.4,5.00,0.00,22.0,20.6,00.0,30.7,23.7,09.0,0000.0,0004.18,0002.64,0002.37
2023-01-22 04:13:00,,0822.4,5.00,0.00,22.0,20.6,00.0,30.7,23.7,08.8,0000.0,0004.21,0002.68,0002.42
2023-01-22 04:14:00,,0822.4,5.00,0.00,22.0,20.5,00.0,30.7,23.7,08.5,0000.0,0004.07,0002.62,0002.38
2023-01-22 04:15:00,,0822.4,5.00,0.00,21.9,20.5,00.0,30.7,23.7,08.5,0000.0,0004.11,0002.57,0002.34
2023-01-22 04:16:00,,0822.4,5.01,0.00,21.9,20.6,00.0,30.7,23.6,08.6,0000.0,0004.18,0002.56,0002.33
2023-01-22 04:17:00,,0822.4,5.01,0.00,22.0,21.2,00.0,30.7,23.8,08.4,0000.0,0004.16,0002.52,0002.28
2023-01-22 04:18:00,,0822.4,5.01,0.00,22.1,22.1,00.0,30.7,24.0,08.5,0000.0,0004.08,0002.47,0002.23
2023-01-22 04:19:00,,0822.4,4.99,0.00,22.2,22.3,00.0,30.8,24.2,08.6,0000.0,0003.97,0002.41,0002.17
2023-01-22 04:20:00,,0822.4,4.98,0.00,22.2,22.0,00.0,30.8,24.1,08.5,0000.0,0003.89,0002.31,0002.06
2023-01-22 04:21:00,,0822.4,5.01,0.00,22.2,21.7,00.0,30.8,24.1,08.6,0000.0,0003.60,0002.20,0001.96
2023-01-22 04:22:00,,0822.4,5.00,0.00,22.2,21.5,00.0,30.8,24.0,08.7,0000.0,0003.27,0002.11,0001.89
2023-01-22 04:23:00,,0822.3,5.00,0.00,22.2,21.2,00.0,30.9,24.0,08.8,0000.0,0002.82,0002.02,0001.81
2023-01-22 04:24:00,,0822.3,5.00,0.00,22.2,21.1,00.0,30.9,24.0,08.8,0000.0,0002.73,0001.95,0001.73
2023-01-22 04:25:00,,0822.3,5.00,0.00,22.2,21.0,00.0,30.9,24.0,08.8,0000.0,0002.91,0002.03,0001.76
2023-01-22 04:26:00,,0822.3,5.02,0.00,22.2,20.9,00.0,30.9,23.9,08.8,0000.0,0003.02,0002.11,0001.79
2023-01-22 04:27:00,,0822.2,5.00,0.00,22.2,20.8,00.0,30.9,23.9,08.9,0000.0,0002.94,0002.08,0001.76
2023-01-22 04:28:00,,0822.2,5.01,0.00,22.2,20.7,00.0,30.9,23.8,09.2,0000.0,0002.88,0002.04,0001.72
2023-01-22 04:29:00,,0822.2,5.00,0.00,22.1,20.5,00.0,30.9,23.8,09.2,0000.0,0002.91,0002.01,0001.67
2023-01-22 04:30:00,,0822.2,5.02,0.00,22.1,20.4,00.0,30.9,23.7,09.4,0000.0,0002.93,0001.98,0001.61
2023-01-22 04:31:00,,0822.1,4.99,0.00,22.0,20.3,00.0,30.9,23.7,09.4,0000.0,0002.90,0001.92,0001.54
2023-01-22 04:32:00,,0822.1,5.01,0.00,22.0,20.4,00.0,30.8,23.6,09.3,0000.0,0002.77,0001.82,0001.47
2023-01-22 04:33:00,,0822.2,5.01,0.00,22.0,20.4,00.0,30.8,23.6,09.0,0000.0,0002.56,0001.72,0001.40
2023-01-22 04:34:00,,0822.1,5.01,0.00,22.0,20.4,00.0,30.8,23.6,08.9,0000.0,0002.49,0001.66,0001.32
2023-01-22 04:35:00,,0822.1,4.99,0.00,22.0,20.4,00.0,30.8,23.6,08.9,0000.0,0002.61,0001.63,0001.24
2023-01-22 04:36:00,,0822.0,5.00,0.00,22.0,20.9,00.0,30.8,23.7,09.1,0000.0,0002.44,0001.52,0001.16
2023-01-22 04:37:00,,0821.8,5.00,0.00,22.1,21.9,00.0,30.8,24.0,09.2,0000.0,0002.40,0001.48,0001.10
2023-01-22 04:38:00,,0821.8,5.00,0.00,22.2,22.8,00.0,30.8,24.2,09.1,0000.0,0002.58,0001.49,0001.07
2023-01-22 04:39:00,,0821.8,4.99,0.00,22.3,22.4,00.0,30.8,24.2,09.2,0000.0,0003.23,0001.59,0001.09
2023-01-22 04:40:00,,0821.8,5.00,0.00,22.2,21.8,00.0,30.9,24.0,08.8,0000.0,0003.31,0001.62,0001.09
2023-01-22 04:41:00,,0821.8,5.00,0.00,22.2,21.3,00.0,30.9,23.9,08.9,0000.0,0003.38,0001.63,0001.09
2023-01-22 04:42:00,,0821.8,5.01,0.00,22.2,21.1,00.0,30.9,23.8,09.2,0000.0,0003.34,0001.62,0001.09
2023-01-22 04:43:00,,0821.8,5.00,0.00,22.1,20.9,00.0,30.9,23.7,09.1,0000.0,0003.44,0001.66,0001.09
2023-01-22 04:44:00,,0821.8,5.00,0.00,22.1,20.7,00.0,30.9,23.7,08.9,0000.0,0003.57,0001.68,0001.10
2023-01-22 04:45:00,,0821.8,5.00,0.00,22.1,20.6,00.0,30.9,23.6,09.0,0000.0,0003.78,0001.77,0001.13
2023-01-22 04:46:00,,0821.7,4.98,0.00,22.0,20.5,00.0,30.9,23.5,08.8,0000.0,0003.70,0001.76,0001.14
2023-01-22 04:47:00,,0821.7,5.01,0.00,22.0,20.3,00.0,30.9,23.5,09.0,0000.0,0003.67,0001.75,0001.16
2023-01-22 04:48:00,,0821.7,5.00,0.00,21.9,20.2,00.0,30.9,23.4,09.1,0000.0,0003.52,0001.70,0001.17
2023-01-22 04:49:00,,0821.7,4.99,0.00,21.9,20.2,00.0,30.9,23.3,09.1,0000.0,0003.44,0001.70,0001.18
2023-01-22 04:50:00,,0821.7,5.01,0.00,21.9,20.9,00.0,30.8,23.5,09.3,0000.0,0002.97,0001.65,0001.18
2023-01-22 04:51:00,,0821.7,5.00,0.00,22.0,22.0,00.0,30.8,23.9,09.3,0000.0,0002.84,0001.63,0001.20
2023-01-22 04:52:00,,0821.7,4.99,0.00,22.1,22.7,00.0,30.8,24.1,08.8,0000.0,0002.65,0001.61,0001.22
2023-01-22 04:53:00,,0821.7,4.99,0.00,22.2,22.2,00.0,30.9,24.1,08.7,0000.0,0002.65,0001.62,0001.24
2023-01-22 04:54:00,,0821.6,4.99,0.00,22.2,21.6,00.0,30.9,23.9,08.9,0000.0,0002.67,0001.64,0001.26
2023-01-22 04:55:00,,0821.6,5.00,0.00,22.1,21.2,00.0,30.9,23.8,08.9,0000.0,0002.63,0001.66,0001.27
2023-01-22 04:56:00,,0821.6,5.00,0.00,22.1,20.9,00.0,30.9,23.7,09.2,0000.0,0002.55,0001.61,0001.26
2023-01-22 04:57:00,,0821.6,5.03,0.00,22.1,20.8,00.0,30.9,23.6,09.1,0000.0,0002.58,0001.60,0001.25
2023-01-22 04:58:00,,0821.6,5.00,0.00,22.0,20.6,00.0,30.9,23.6,09.0,0000.0,0002.68,0001.59,0001.24
2023-01-22 04:59:00,,0821.6,5.00,0.00,22.0,20.5,00.0,30.9,23.5,09.1,0000.0,0003.06,0001.59,0001.23
